Wind_Speed
17 17 17 16 16 15 14 14 15 14 13 13 15 15 15 15 14 16 17 18 20 21 20 15 9 6 7 12 20 27 31 30 31 37 39 33 25 19 19 18 19 20 17 16 15 12 10 12 14 13 12 13 15 13 9 11 11 4 2 4 2 1 2 4 3 4 4 4 9 16 19 12 10 23 27 19 17 16 18 25 28 25 22 11 3 7 15 15
18 18 18 17 16 15 15 14 14 13 12 13 14 14 14 14 14 15 15 16 18 21 22 20 15 6 1 2 8 17 27 31 34 41 38 28 24 22 20 19 20 20 18 19 19 18 16 14 15 13 13 17 18 16 12 13 13 6 2 3 2 1 2 5 8 8 7 6 10 14 17 13 9 20 23 15 16 19 16 22 30 29 28 17 7 13 16 14
18 18 18 17 16 15 14 13 13 12 11 12 13 13 14 13 14 14 14 13 13 18 21 21 20 14 6 3 3 6 17 30 39 40 33 27 26 23 20 20 19 19 18 18 18 17 14 13 13 11 14 18 18 18 16 17 13 6 5 3 2 1 1 8 12 11 12 12 12 14 16 13 14 21 19 11 13 13 10 16 24 26 28 24 9 8 12 11
18 18 17 16 16 15 14 13 12 11 11 11 12 13 13 13 14 13 13 11 10 11 14 18 22 22 15 2 6 4 6 21 35 35 28 27 26 22 21 20 20 21 18 14 13 12 11 9 8 10 15 16 18 18 15 18 11 5 5 4 3 6 2 6 12 14 16 16 14 14 14 13 19 20 14 12 10 7 9 17 19 20 23 24 16 3 4 5
16 16 17 16 16 15 14 13 12 11 11 11 12 13 13 13 13 14 14 13 11 10 11 14 19 25 25 16 6 6 1 7 22 29 26 26 24 22 21 20 22 21 18 13 11 13 11 8 8 13 15 12 16 13 12 19 12 3 5 5 7 8 4 6 12 13 15 17 16 15 11 12 19 19 14 9 4 6 15 23 21 18 19 21 17 9 2 1
15 16 16 16 17 16 15 13 12 11 11 12 13 13 13 13 13 14 14 14 14 12 12 11 11 19 26 29 20 13 12 6 18 27 24 24 22 22 22 21 22 20 19 17 18 19 16 14 13 13 10 8 12 8 11 20 12 2 2 8 12 10 8 12 15 15 15 15 13 12 11 14 16 15 13 9 10 15 21 23 19 16 18 18 17 10 5 6
14 15 16 16 17 16 15 14 13 12 12 13 13 13 13 12 13 15 15 16 16 16 17 14 9 6 12 25 29 34 33 18 21 25 21 21 19 21 22 21 22 22 22 23 24 22 19 21 19 14 7 6 10 8 12 16 13 7 2 9 16 15 13 18 21 19 16 13 12 12 12 14 12 10 13 18 20 19 19 19 18 19 20 17 15 11 9 10
13 14 15 16 16 16 15 14 14 13 13 14 13 13 12 11 12 14 16 17 18 21 23 23 17 5 4 10 22 37 37 24 23 23 20 19 18 21 22 23 25 25 27 28 27 23 23 23 18 14 7 5 9 9 12 12 10 9 4 10 16 17 19 22 25 23 19 15 12 11 12 13 12 10 13 19 21 19 19 20 20 20 20 19 15 12 11 11
12 13 14 15 16 15 14 14 14 13 13 13 12 11 10 11 12 13 15 15 18 22 25 29 27 19 12 11 20 30 26 23 23 21 18 17 18 21 21 24 26 26 28 27 26 26 25 22 16 11 5 5 9 9 10 7 5 7 9 13 15 17 21 21 22 24 22 16 11 7 10 11 12 10 7 13 22 25 25 23 21 21 19 18 14 11 11 12
12 13 14 15 15 14 14 14 14 13 13 13 11 10 10 13 14 14 15 16 19 21 24 28 29 31 27 26 31 22 17 22 21 17 16 17 18 21 23 24 24 25 26 25 26 27 25 21 16 9 5 7 11 10 7 5 6 12 13 13 14 15 16 19 20 25 22 12 8 4 6 10 11 7 3 15 28 29 28 24 22 21 20 17 13 11 8 11
12 12 13 14 13 13 14 14 13 13 13 12 12 11 12 14 14 15 15 16 18 20 23 24 27 31 34 41 40 20 17 22 18 15 15 15 18 20 22 22 22 24 24 24 24 24 23 20 19 12 5 8 10 7 4 9 14 14 11 9 13 13 12 21 22 25 19 9 13 7 5 8 9 4 6 22 31 30 30 26 25 24 22 18 10 7 5 10
11 11 12 13 13 13 13 13 12 12 12 12 13 12 13 13 12 11 11 12 14 16 18 21 25 26 33 45 40 21 19 22 17 14 13 15 18 18 20 20 20 21 21 23 22 21 21 18 21 18 11 7 5 5 4 14 17 10 7 5 10 9 9 20 21 23 15 9 21 9 2 9 6 7 17 28 31 29 30 28 27 26 22 18 8 5 6 12
10 11 12 12 12 12 13 12 11 11 11 12 14 14 12 10 8 6 6 8 11 13 14 16 20 25 32 35 30 23 21 20 16 12 11 14 15 14 16 17 17 18 18 21 19 19 20 19 18 17 19 12 3 4 4 13 17 7 5 5 7 7 6 15 19 24 16 14 26 8 1 8 4 14 26 29 27 25 27 27 26 23 18 16 11 10 13 11
10 10 11 12 12 12 12 12 12 11 10 11 13 15 14 10 8 6 5 5 5 10 13 12 12 21 30 25 22 26 21 17 16 14 14 13 12 12 13 14 16 16 17 18 18 17 16 19 21 17 20 18 6 4 3 10 15 6 4 5 6 3 5 12 15 21 14 15 27 8 3 7 7 20 29 28 26 24 26 27 28 27 24 21 17 17 17 15
10 11 11 12 12 12 12 13 13 12 12 11 11 13 16 16 16 15 14 11 7 7 12 14 11 14 21 19 19 25 21 19 20 18 17 15 15 15 14 14 13 14 16 18 17 16 13 15 23 20 18 20 13 7 2 4 7 5 4 4 5 3 5 10 10 17 11 12 23 12 3 8 10 20 29 30 31 30 29 29 33 35 35 32 25 23 24 24
10 11 11 11 11 12 12 13 13 15 15 14 12 11 11 12 14 16 17 19 17 12 11 16 19 19 16 12 17 24 26 27 24 18 16 16 17 16 14 11 10 12 16 19 16 14 14 12 16 18 18 19 12 4 2 4 4 4 4 2 4 5 5 7 8 18 17 10 17 14 6 6 9 19 29 32 32 32 30 30 33 34 34 33 31 31 31 30
10 11 11 11 11 11 13 14 15 17 20 21 20 17 15 13 10 8 9 12 17 18 17 14 15 19 17 13 18 26 28 28 24 17 14 15 16 14 13 12 10 11 14 21 20 14 14 13 9 10 14 12 6 4 3 6 6 4 4 2 2 4 4 6 5 15 21 11 11 13 10 7 9 19 31 32 30 32 30 28 30 31 32 33 33 34 34 36
10 10 10 10 10 11 13 14 16 20 24 26 26 26 26 25 21 18 15 11 12 16 19 18 12 9 12 18 19 20 23 26 25 19 13 12 14 14 16 19 14 8 9 15 21 19 12 10 7 4 7 8 6 8 6 4 4 3 4 2 2 3 3 4 4 8 13 11 10 11 11 11 12 18 27 30 30 31 29 26 28 30 31 32 34 34 34 38
9 9 9 10 9 9 10 12 13 15 19 20 19 19 20 24 27 30 31 29 25 16 11 17 16 5 2 16 18 14 17 24 26 22 15 12 12 12 14 18 19 15 9 5 13 19 10 4 6 4 7 8 7 8 5 3 4 4 4 2 4 4 3 4 3 5 6 9 11 11 10 11 13 15 20 26 29 30 29 27 28 29 31 32 33 34 35 37
9 9 9 9 9 8 7 8 9 10 10 9 8 6 5 9 14 22 33 39 34 22 13 16 16 9 4 14 20 17 15 21 27 26 21 15 8 8 12 15 19 22 14 4 5 13 10 8 8 7 7 7 5 5 5 3 2 2 2 2 4 3 4 4 1 6 5 7 7 9 12 12 13 14 16 22 29 30 27 26 27 28 30 31 31 32 34 35
8 8 8 8 8 7 6 5 4 7 8 8 5 1 2 5 6 9 21 27 22 20 21 21 18 15 12 15 21 19 15 20 28 29 25 20 11 8 14 14 12 13 13 9 3 5 9 11 7 6 6 6 4 3 6 5 2 1 1 2 3 1 4 4 4 6 5 6 4 9 16 13 13 14 17 22 25 25 24 23 24 25 27 29 29 29 29 32
8 7 7 8 7 8 7 5 3 4 5 6 6 7 12 16 16 14 15 15 14 16 18 21 22 21 17 15 17 19 21 22 26 30 27 22 16 10 12 13 7 5 9 9 4 4 10 9 6 8 8 6 3 3 5 5 2 2 1 2 2 0 3 3 4 4 4 5 4 10 15 11 11 13 17 22 20 20 23 23 21 23 26 28 27 27 28 34
7 6 7 7 7 8 7 6 5 4 5 6 10 14 16 17 16 16 14 10 10 14 15 19 23 24 21 16 16 18 22 21 21 29 30 23 18 12 10 10 5 4 7 7 7 7 7 5 7 9 9 7 5 5 6 5 2 2 2 1 2 2 1 2 3 5 5 2 4 8 11 7 8 9 12 19 19 18 23 24 22 22 25 27 27 28 31 35
7 7 6 6 7 7 7 7 5 5 6 8 11 12 13 13 14 13 10 8 6 9 14 16 20 25 22 18 17 13 15 18 19 26 29 24 18 10 7 7 5 5 6 6 9 9 3 4 9 9 9 7 5 6 6 6 5 3 2 1 3 4 2 2 1 3 4 2 3 4 6 6 8 9 8 12 15 15 18 21 22 22 23 25 28 32 33 34
8 7 7 6 6 6 7 7 5 6 7 7 9 9 10 11 10 8 5 6 3 7 12 12 15 21 20 20 18 5 6 15 20 24 25 21 16 7 5 6 5 5 7 4 6 6 2 5 9 9 8 7 6 6 5 4 4 4 2 2 4 4 2 3 1 1 1 3 5 3 2 4 5 7 7 6 9 11 12 16 19 22 24 24 27 31 32 32
8 8 8 7 6 6 5 6 6 6 6 5 8 8 8 8 6 4 3 5 3 6 9 9 10 15 18 22 19 2 3 10 16 24 25 17 12 8 5 6 5 4 4 2 3 2 3 7 7 5 6 8 8 6 4 4 4 3 2 2 4 2 1 4 1 2 2 1 3 3 3 2 2 5 7 7 7 8 10 12 16 20 24 24 24 27 29 30
9 8 8 8 8 8 6 6 7 6 5 4 6 6 7 7 6 3 1 5 4 4 6 8 7 11 14 18 20 6 3 12 15 23 27 15 9 11 7 4 4 4 4 1 3 1 3 8 7 6 7 7 7 7 5 5 4 3 5 7 4 2 2 2 1 4 3 2 1 4 3 3 2 5 7 7 6 7 9 11 13 17 21 23 23 23 25 26
9 9 8 8 9 9 8 8 7 6 5 2 3 3 5 7 8 4 4 5 4 3 4 6 4 9 11 11 19 14 3 10 10 15 27 18 8 9 10 5 1 3 6 4 2 3 2 4 6 6 8 6 5 7 8 5 2 4 7 8 3 4 4 1 3 5 3 2 2 4 2 2 2 4 5 6 5 7 8 8 11 14 16 19 20 20 21 22
9 9 9 9 9 9 8 9 8 7 6 2 2 4 5 7 7 1 6 3 2 2 2 5 4 10 14 8 14 17 9 9 7 12 25 25 13 5 4 7 5 1 8 7 4 2 3 4 5 3 5 6 6 9 8 3 2 9 7 5 3 5 4 2 2 4 3 2 3 4 2 2 1 3 4 4 4 5 5 5 7 11 13 15 18 18 18 21
8 9 9 9 9 9 8 8 9 8 7 4 3 6 7 6 4 4 5 1 1 2 3 5 4 9 15 7 7 14 9 7 9 13 19 23 26 20 6 6 11 4 4 7 4 3 6 4 4 1 4 8 9 9 7 3 6 9 4 3 4 4 3 2 2 2 2 3 3 4 2 1 1 1 2 2 2 4 3 2 4 7 10 12 15 17 17 19
8 8 9 9 9 9 8 8 10 9 8 5 3 6 6 2 3 6 3 1 2 3 4 5 4 7 10 4 4 10 6 6 14 13 12 15 26 31 16 6 11 6 4 7 5 7 8 6 5 3 6 12 8 6 8 9 11 9 3 3 3 3 3 4 4 4 4 2 2 3 3 2 1 1 2 2 3 4 3 1 1 5 7 9 11 14 16 18
8 8 8 9 9 9 9 10 11 10 8 5 3 4 3 2 4 3 1 4 2 3 3 3 4 5 6 3 4 8 4 7 15 12 7 7 9 14 12 4 4 4 5 6 5 7 5 1 6 6 8 15 9 5 9 9 10 9 5 5 4 3 4 4 4 3 2 1 2 2 3 3 1 3 4 3 4 4 2 2 3 4 6 7 8 9 12 15
8 8 8 8 8 9 10 10 11 10 8 5 3 2 5 5 2 1 3 3 1 3 3 2 4 4 4 5 5 7 4 3 9 8 3 3 3 3 6 5 4 2 1 3 3 6 4 3 7 6 6 13 9 4 6 6 6 7 4 4 4 2 4 2 3 3 2 3 3 3 3 1 2 4 5 5 4 3 2 5 5 5 5 6 7 7 9 12
6 7 7 7 7 8 9 10 10 10 8 5 4 3 7 4 1 0 2 3 1 3 3 3 5 5 5 5 2 5 4 2 4 6 4 3 4 3 4 6 8 3 2 2 2 2 3 4 5 4 3 8 6 2 2 4 3 4 0 4 4 3 3 1 2 0 2 4 4 3 3 2 2 2 4 5 3 2 4 5 5 4 4 5 6 7 8 10
5 6 6 6 7 8 9 10 11 11 8 4 5 6 5 2 3 1 1 4 1 2 4 3 4 4 4 3 3 3 2 2 3 5 5 4 3 3 3 4 7 4 2 2 2 0 2 4 5 3 4 3 5 5 4 0 1 2 1 4 3 1 3 2 3 4 2 2 3 2 0 4 3 3 5 4 3 3 3 3 1 0 1 3 4 6 8 9
5 6 6 6 7 9 10 10 10 12 8 2 6 5 2 3 3 3 1 1 1 1 2 4 4 5 4 4 4 4 3 3 3 4 4 3 1 1 2 2 4 5 2 2 1 1 2 3 5 6 5 3 7 7 6 8 1 2 3 2 3 2 5 2 1 1 1 1 3 1 1 3 2 3 5 4 4 5 4 4 4 4 4 3 3 5 6 8
4 5 6 7 9 10 11 10 9 11 8 3 7 2 3 2 3 3 1 1 2 2 3 2 2 2 2 3 3 5 5 3 3 4 2 2 2 2 2 2 2 5 2 2 1 0 0 4 5 4 2 7 12 5 3 10 6 1 3 2 3 1 3 2 1 4 4 1 3 2 2 3 1 1 4 4 5 7 6 7 7 7 6 5 3 3 5 7
3 4 7 8 9 9 10 10 9 8 6 6 6 2 2 1 2 2 1 2 2 2 4 2 0 1 2 1 3 5 5 3 3 4 1 1 1 0 1 2 2 6 3 2 1 1 1 3 5 0 2 8 12 4 1 10 9 4 0 2 1 3 2 3 3 2 3 2 4 5 4 2 3 3 3 6 9 8 7 7 8 8 8 6 4 3 4 6
2 3 7 8 8 8 9 9 8 6 5 6 3 1 1 1 1 1 2 1 1 2 3 2 1 1 3 3 1 3 3 3 3 3 1 1 1 0 1 1 3 8 5 3 2 2 1 1 3 3 2 5 6 5 1 6 6 3 2 3 2 3 2 1 2 2 1 0 3 4 5 2 5 4 5 9 9 8 7 6 7 11 10 7 5 4 4 6
1 2 6 7 6 7 7 7 8 6 6 4 3 2 0 1 2 3 2 0 1 1 0 2 2 2 2 2 1 1 1 2 1 1 0 0 1 0 0 1 3 7 5 3 2 1 1 2 2 6 5 2 2 2 1 1 3 3 4 4 3 2 2 1 1 2 3 2 1 1 4 5 5 3 6 9 8 8 9 8 10 14 12 9 8 6 6 7
2 2 5 6 6 7 6 7 10 8 5 2 1 1 0 2 3 3 2 2 2 2 1 2 3 3 3 2 1 2 1 0 0 0 1 1 1 0 1 1 2 4 4 3 2 1 1 1 1 4 5 2 2 2 1 1 2 2 2 1 0 1 3 3 2 3 2 2 3 2 3 7 6 3 5 7 7 11 13 13 14 16 14 11 10 7 7 8
2 2 3 4 5 5 5 7 8 6 4 2 2 1 1 2 3 3 3 3 2 2 2 3 2 2 2 2 1 2 2 1 2 1 1 2 2 2 2 1 2 2 1 1 2 1 1 2 0 3 4 3 5 5 2 2 2 3 1 2 3 2 4 5 2 3 1 1 1 3 2 7 6 4 6 8 11 15 17 17 17 16 15 14 12 10 10 10
4 3 3 4 3 2 4 5 5 4 3 2 3 3 2 1 1 2 2 2 2 1 1 1 2 1 1 2 1 2 2 1 2 2 2 3 3 4 4 2 2 1 1 0 1 1 1 2 1 4 4 4 5 5 3 2 1 2 1 1 3 2 3 4 4 2 0 2 1 2 3 7 5 4 5 9 12 15 16 17 17 16 15 15 14 13 12 11
4 4 3 5 4 0 3 3 2 2 1 2 3 3 2 1 1 1 1 2 1 1 1 1 1 2 1 1 3 2 2 1 1 2 2 2 2 5 5 2 1 0 1 1 0 1 0 0 2 3 5 6 6 6 5 4 2 1 3 2 2 3 4 3 1 3 0 4 5 4 4 7 4 4 3 6 8 11 16 17 17 17 16 16 16 15 14 13
2 1 3 7 6 2 4 5 6 5 3 2 3 2 2 1 2 2 2 2 2 2 1 0 1 3 2 2 3 1 1 0 1 1 0 1 2 5 6 3 1 2 2 2 0 1 1 2 2 3 1 3 3 4 3 3 2 2 2 2 3 4 4 1 1 3 2 4 5 5 5 6 5 4 3 4 5 8 14 17 17 17 17 18 18 17 17 17
1 0 1 5 7 7 8 6 7 7 5 4 3 2 2 1 2 4 4 3 3 3 2 1 2 3 2 1 2 2 3 2 2 1 1 2 2 3 6 4 3 4 5 4 1 1 2 1 2 5 5 5 4 5 2 1 2 5 4 3 4 4 2 3 3 3 4 3 3 8 9 9 11 8 5 6 6 6 12 17 18 19 20 20 21 21 20 20
2 0 0 2 4 6 9 5 5 7 7 7 4 4 5 3 1 2 5 4 3 5 4 1 3 4 2 3 2 1 2 3 4 2 3 3 2 2 3 3 3 6 7 4 2 3 3 2 4 6 8 9 6 8 7 5 6 9 8 7 7 7 5 5 6 6 4 3 5 8 6 8 14 10 6 8 7 7 12 18 20 21 21 22 23 24 23 22
1 1 1 1 0 1 4 2 4 7 8 6 3 4 6 4 2 3 5 3 3 6 5 1 4 6 6 6 4 1 1 2 3 3 2 1 2 3 2 2 4 6 6 3 1 3 4 2 4 3 6 10 9 10 11 9 8 9 11 12 10 8 9 11 12 9 7 6 10 6 4 8 14 10 6 9 11 11 15 19 21 23 23 24 25 26 26 25
1 2 3 3 2 3 4 3 6 9 7 4 2 3 6 6 6 5 3 3 0 5 7 3 6 8 8 7 5 3 3 3 2 4 3 1 1 1 1 1 2 5 5 2 1 2 3 2 3 1 6 10 9 10 11 9 8 9 12 14 12 11 13 15 15 11 11 14 17 12 10 14 17 15 14 18 18 18 22 25 24 25 25 24 24 26 27 27
3 2 3 4 3 5 7 6 8 7 3 1 1 3 5 6 7 5 5 7 3 2 7 6 6 7 10 8 6 4 7 7 3 4 5 4 1 1 2 2 2 3 3 1 1 1 1 2 1 2 5 8 6 4 5 5 7 10 15 17 14 13 13 14 15 12 11 15 18 16 14 16 20 20 20 24 24 20 22 25 24 24 24 23 23 25 27 28
5 4 5 4 3 5 7 6 6 4 1 1 3 3 4 6 8 7 6 10 10 6 9 11 7 6 7 7 7 11 15 12 7 5 6 7 4 4 4 4 5 5 2 2 1 1 2 2 2 5 4 7 3 5 5 6 8 11 18 21 17 13 11 11 12 11 11 13 12 10 9 12 17 14 11 16 19 16 19 24 24 23 23 22 24 26 27 28
6 6 7 5 2 5 8 6 4 3 1 4 7 7 5 5 9 9 3 7 13 11 9 12 11 7 4 6 12 17 19 17 13 8 6 8 8 7 7 7 8 7 4 4 2 0 3 1 1 2 2 6 4 4 6 7 8 8 11 12 9 9 9 7 7 10 13 11 7 7 9 11 10 6 5 9 12 14 19 23 24 24 22 22 25 26 27 28
Wind_Direction
52 54 56 53 52 50 50 50 50 50 48 49 50 51 56 60 65 63 60 59 56 55 57 62 77 95 76 61 57 52 45 42 46 48 45 30 9 8 10 13 19 16 15 18 31 44 54 62 56 63 71 63 49 38 50 39 28 41 91 89 107 110 38 22 48 13 328 312 341 348 357 359 338 345 345 351 9 17 38 36 28 37 35 26 103 145 166 168
56 56 54 51 50 48 45 44 45 45 42 44 47 53 58 62 67 66 62 62 62 59 58 54 51 52 68 93 61 52 42 37 45 44 36 26 15 12 9 14 20 14 12 21 30 31 33 36 37 50 59 56 43 36 47 32 28 46 72 99 110 64 336 30 45 22 2 332 334 350 354 358 357 344 348 354 342 356 29 19 14 24 22 21 91 138 157 165
56 55 52 49 45 43 40 38 40 40 40 43 49 57 61 65 68 67 64 65 68 65 60 52 44 32 3 239 202 64 38 30 36 32 23 23 18 11 10 15 19 15 10 16 22 18 14 16 25 45 59 53 40 41 40 23 23 26 37 82 64 347 291 35 31 9 357 344 338 348 350 350 352 347 351 354 331 348 25 9 4 2 0 1 8 145 153 161
55 53 48 45 41 38 34 32 34 36 42 48 55 63 67 68 69 66 62 65 72 65 57 52 46 36 26 25 192 177 26 27 27 17 13 20 16 15 18 19 23 19 10 11 18 16 12 23 41 51 58 46 31 44 34 12 12 356 47 98 344 354 348 21 12 355 351 349 339 340 349 346 342 342 343 354 347 344 346 347 352 346 352 358 348 338 136 165
54 49 43 40 36 33 30 29 33 39 49 58 65 72 72 71 71 65 61 63 65 60 52 53 54 50 47 58 122 196 271 21 14 9 13 18 19 25 26 28 29 23 18 25 37 36 33 44 61 50 52 38 22 40 16 5 14 348 61 59 357 7 346 333 352 347 344 343 337 341 351 335 330 329 328 345 348 293 313 327 337 341 353 1 351 339 351 248
51 45 40 36 32 30 29 32 39 48 59 67 75 78 76 77 74 66 64 65 63 58 47 44 62 64 61 64 75 87 87 66 2 8 15 19 28 34 35 37 35 32 34 44 49 45 46 50 61 48 44 42 24 27 360 5 28 58 25 10 353 356 329 322 338 337 337 338 334 335 332 325 325 326 323 312 297 302 312 323 330 330 338 352 356 344 330 341
50 43 38 34 32 30 33 42 50 59 69 76 82 82 79 81 78 72 71 74 71 64 54 44 50 78 74 63 63 65 66 50 10 12 17 27 40 41 44 46 44 42 43 51 49 46 51 51 56 47 43 48 16 1 359 8 36 46 328 340 343 338 328 327 331 328 330 328 322 322 318 320 320 317 320 311 309 317 323 325 321 317 317 328 348 354 343 338
50 43 39 36 34 35 44 55 60 68 76 81 86 83 82 86 86 82 80 83 76 66 59 52 48 59 121 61 53 54 48 28 15 15 20 39 49 47 53 55 54 50 48 52 49 48 51 48 46 39 56 58 8 348 356 10 37 37 338 326 331 328 331 334 335 333 329 321 320 318 310 310 314 314 308 312 324 336 332 325 321 317 310 311 334 2 3 345
50 44 39 38 38 44 57 64 68 75 80 84 86 81 85 93 94 92 88 87 76 66 59 56 53 60 87 85 63 53 34 17 17 16 28 49 52 51 59 60 57 53 50 52 49 49 47 42 34 32 65 41 8 352 356 20 29 355 322 316 318 321 331 338 341 344 337 325 323 312 307 312 329 337 302 323 343 343 337 332 332 330 323 316 317 341 11 16
49 44 40 40 43 54 66 70 73 78 81 84 78 73 94 103 100 98 94 85 75 67 60 57 55 58 67 71 68 59 23 20 22 20 37 53 55 56 60 60 58 55 50 48 47 48 45 40 30 30 60 16 356 348 5 35 338 324 317 308 315 320 337 354 353 355 355 349 350 300 279 311 334 357 316 339 346 345 343 342 342 339 336 332 313 320 3 22
49 45 44 44 49 63 71 73 74 78 82 80 68 73 105 112 103 96 89 80 73 66 60 57 54 55 57 59 63 55 21 25 23 28 43 54 57 54 54 55 55 56 53 48 47 46 45 45 40 46 46 358 347 341 2 359 331 321 324 314 330 337 7 14 2 1 6 9 355 314 257 332 347 14 335 340 344 345 345 342 346 344 342 344 328 303 323 356
52 48 49 50 58 69 74 74 73 77 82 80 68 79 112 120 111 95 79 71 66 62 59 55 52 53 55 55 54 43 28 29 28 37 45 48 49 46 45 48 50 54 55 51 49 47 47 44 44 48 34 1 344 346 344 352 344 331 349 345 344 358 31 14 360 0 8 4 353 336 259 358 2 346 339 346 349 348 347 345 347 347 346 352 346 315 345 351
55 52 56 58 66 75 76 73 72 75 83 87 76 80 107 122 113 92 69 63 60 55 52 52 51 50 57 56 47 40 38 33 37 52 56 51 46 42 42 44 49 52 54 52 49 48 48 44 44 46 32 18 332 359 4 13 18 9 16 39 359 360 18 1 356 1 7 4 359 10 128 347 329 347 352 359 1 358 358 359 359 359 4 10 20 35 35 12
58 59 63 65 72 80 79 75 73 75 84 94 86 81 88 91 86 73 55 50 51 52 45 46 49 47 57 61 43 39 44 41 46 53 56 56 52 52 50 47 50 53 55 51 46 47 50 47 44 46 32 21 18 47 40 25 30 17 358 35 18 8 339 340 355 7 6 355 0 29 110 356 359 2 10 20 24 28 24 22 26 35 52 60 62 63 60 45
63 66 70 72 77 83 83 77 73 75 83 93 96 89 82 79 77 72 65 56 53 67 58 54 58 52 58 59 37 35 44 46 44 40 39 40 42 45 47 46 49 55 54 45 42 46 51 50 45 44 31 26 39 55 55 33 29 24 18 10 1 5 326 328 357 13 358 344 6 35 76 15 14 5 18 31 36 44 38 33 39 48 61 69 69 64 59 52
68 71 76 77 80 87 88 82 79 82 84 87 91 90 84 81 78 74 71 63 64 75 75 63 59 58 56 42 27 31 37 36 34 36 33 31 33 35 40 48 54 59 54 44 45 52 52 52 48 44 31 29 38 37 73 53 18 33 44 11 350 352 340 334 354 8 1 357 22 43 64 26 5 4 22 32 35 43 40 35 39 44 51 58 62 59 53 50
68 72 79 81 83 93 96 92 91 91 89 87 84 82 80 77 73 71 65 63 68 69 67 67 61 61 55 32 24 24 26 28 29 36 39 35 34 36 45 53 61 71 60 47 48 55 54 49 49 43 33 33 28 10 63 41 4 7 24 34 12 346 328 334 339 4 11 28 43 49 62 40 8 15 27 30 32 41 39 34 37 40 44 49 54 55 52 51
66 73 81 83 85 95 107 111 105 99 96 94 89 85 80 75 71 71 70 75 75 63 54 48 49 70 44 20 15 12 19 28 29 33 44 48 45 47 50 48 56 83 67 45 39 41 45 47 61 74 34 32 25 30 51 18 335 317 346 352 342 336 293 318 329 350 13 41 46 46 52 35 18 21 28 27 31 41 39 34 39 41 43 46 48 50 50 51
66 76 83 84 87 95 116 130 127 117 108 104 99 90 80 72 67 64 63 65 64 60 47 34 39 93 18 7 12 12 22 30 29 32 39 47 54 59 55 51 53 56 51 30 26 28 28 51 59 47 15 13 14 33 39 310 285 273 306 305 303 325 294 289 321 332 13 52 42 47 53 36 25 18 22 27 33 41 39 36 39 41 44 46 47 48 48 49
69 80 84 82 86 89 108 138 155 157 146 140 127 92 64 60 59 54 54 59 62 66 67 49 48 71 49 14 19 23 29 32 30 29 31 31 44 56 45 40 43 44 35 355 6 14 22 51 42 15 357 342 335 14 10 321 289 266 276 295 287 285 296 290 10 345 3 69 46 56 61 40 32 21 13 26 36 37 34 36 37 39 44 45 47 49 49 50
71 79 83 79 84 85 90 110 141 170 178 186 188 89 48 77 87 70 60 62 65 64 58 51 50 49 38 22 20 21 23 28 28 27 27 26 34 46 29 24 32 34 10 349 344 348 28 51 27 345 327 310 305 356 5 350 351 360 235 258 296 247 280 292 83 11 5 83 54 60 65 41 33 30 14 25 40 35 26 33 38 40 46 46 45 47 49 50
69 75 79 75 78 79 79 81 91 143 164 182 173 121 99 98 101 97 85 80 69 59 49 42 42 38 34 27 21 21 21 20 20 21 22 24 38 45 25 27 42 25 352 351 7 13 38 44 348 334 333 334 360 11 6 351 324 358 315 239 318 334 269 295 85 30 1 89 63 60 67 43 27 36 26 25 38 40 29 31 37 41 47 46 43 42 46 49
66 69 74 71 71 68 70 78 83 107 118 139 143 125 109 105 105 98 94 97 72 54 40 34 32 27 26 24 16 24 33 26 9 8 11 14 28 36 26 30 41 17 357 10 42 45 46 16 326 343 2 15 18 360 13 7 347 355 326 307 334 338 341 342 49 7 346 107 104 69 70 53 24 29 38 30 30 41 38 34 36 43 49 49 47 46 46 47
64 63 68 69 71 62 59 70 79 108 113 131 142 131 121 117 115 110 99 98 81 41 30 29 25 20 18 12 7 21 42 35 13 3 5 9 15 25 26 22 33 30 5 27 61 70 84 323 336 357 15 29 15 357 23 20 356 332 287 282 332 333 357 332 12 5 344 54 58 44 55 46 22 15 29 29 26 35 38 37 36 40 48 51 50 50 49 49
60 60 60 58 69 62 57 67 87 123 121 139 154 141 136 132 120 120 106 90 66 8 14 18 19 17 10 5 6 21 62 35 20 6 3 11 14 13 18 18 34 21 354 24 70 71 62 340 1 9 359 13 17 4 27 30 350 327 269 236 298 307 321 313 215 132 40 32 1 340 64 42 8 16 16 9 25 30 31 39 37 36 42 46 47 48 49 50
54 55 55 54 63 56 57 71 81 106 115 150 175 165 158 160 141 130 100 71 31 341 359 4 7 9 7 7 4 20 122 17 15 13 11 17 19 21 18 8 33 21 342 38 79 68 346 347 19 35 353 7 15 357 6 27 10 342 320 299 303 277 289 320 285 143 106 60 331 324 94 97 358 21 10 349 15 30 25 37 41 38 41 43 44 46 47 49
49 47 49 53 58 50 50 65 66 80 101 141 182 191 189 188 179 180 69 47 15 333 355 358 357 3 7 13 16 62 169 341 4 21 18 16 18 40 48 351 23 15 325 80 54 354 317 343 4 24 7 13 12 347 336 6 14 313 334 352 353 124 127 340 68 114 122 166 356 6 48 92 31 11 359 341 357 28 26 27 36 40 42 43 44 45 46 49
46 44 43 48 52 46 44 51 52 56 65 109 171 182 187 184 186 185 89 72 349 325 357 355 352 1 9 27 35 59 90 344 3 15 20 29 23 42 56 31 37 326 351 79 84 311 269 333 345 3 11 7 352 324 309 351 25 269 321 351 10 113 121 80 109 125 146 147 56 4 2 71 27 340 346 343 347 18 24 17 22 35 44 47 47 47 48 51
44 45 43 44 44 39 39 43 44 43 40 53 113 129 147 157 174 136 71 110 307 335 345 349 348 352 2 28 39 40 42 25 16 359 23 40 38 49 86 30 31 339 11 60 116 303 278 289 318 4 28 352 319 309 306 352 322 283 312 5 51 79 80 58 97 138 159 94 42 327 291 101 44 312 332 345 340 356 17 16 7 24 46 53 52 51 51 53
39 42 44 42 37 34 36 39 38 32 27 40 106 121 130 137 136 56 47 144 287 355 327 354 358 344 356 12 22 16 22 28 8 2 23 36 36 44 80 14 19 42 15 31 75 336 314 332 354 50 30 343 310 306 312 317 309 303 324 47 43 45 54 34 31 100 87 44 4 314 294 127 78 297 294 319 291 293 329 33 3 16 41 52 52 51 51 54
34 37 41 38 31 29 31 32 30 26 25 39 127 128 124 113 70 88 81 284 303 349 352 4 356 351 5 32 7 353 358 7 4 13 21 21 29 34 38 10 4 21 15 8 17 344 340 22 19 342 11 360 336 329 344 343 347 356 33 59 34 356 14 20 356 34 65 23 274 284 333 56 82 236 234 263 279 292 324 42 33 16 33 49 53 49 48 52
33 31 36 35 27 21 24 22 21 24 26 43 126 140 114 16 22 88 279 324 334 337 357 350 337 351 360 22 15 348 346 3 6 21 32 20 30 31 38 43 344 14 20 359 355 347 339 360 350 347 13 12 6 350 350 349 2 15 23 49 62 3 11 19 343 6 60 287 258 279 344 38 352 251 229 251 276 294 346 85 94 52 47 58 64 58 51 51
30 29 30 29 22 17 20 16 18 25 25 43 109 129 81 65 33 265 292 334 16 338 349 331 333 351 359 16 8 346 360 4 1 16 34 48 67 45 52 48 14 59 55 353 355 354 339 302 351 13 3 7 26 36 350 333 353 5 13 67 94 86 44 16 314 347 309 279 294 337 8 39 303 276 219 212 246 253 128 124 117 94 81 76 78 74 60 53
29 31 25 19 20 18 20 16 16 22 20 41 102 90 64 70 227 334 317 278 262 340 352 340 335 352 22 38 341 327 17 4 352 16 2 26 50 15 19 20 18 54 122 54 38 27 27 319 351 41 324 347 28 55 275 249 301 341 133 109 99 128 114 157 230 232 285 288 300 346 23 182 228 284 216 201 219 191 137 131 126 111 93 78 74 70 62 55
37 34 19 14 21 18 20 18 12 12 7 30 78 71 78 142 225 123 280 255 265 339 333 352 22 26 5 354 331 341 36 341 355 32 11 20 52 1 354 351 3 30 113 60 357 61 72 272 279 317 286 332 16 330 320 334 245 306 83 89 45 150 144 148 182 191 224 309 317 338 283 217 221 284 257 226 241 225 168 155 166 319 2 22 33 42 44 39
54 41 24 19 23 21 20 12 4 4 355 35 67 62 145 191 198 153 170 231 130 95 330 346 34 49 351 314 336 354 8 347 10 42 11 11 27 339 347 312 350 26 75 102 20 353 36 273 283 335 325 18 12 330 2 41 360 279 45 52 274 205 140 123 300 295 86 58 296 297 265 284 321 297 258 228 245 253 226 210 225 253 279 306 343 11 20 18
72 53 40 35 30 24 16 6 3 2 355 63 79 83 202 199 194 177 106 125 154 126 84 30 21 47 339 305 320 331 344 346 18 48 25 355 355 336 346 301 342 33 33 162 103 212 340 281 296 360 334 332 348 333 44 39 38 79 35 307 278 66 90 94 33 354 29 39 286 309 295 290 334 304 257 220 233 253 243 224 224 239 250 261 289 335 355 357
92 66 47 41 36 24 12 7 2 359 16 68 81 114 176 158 203 200 42 115 153 78 87 121 172 122 178 215 308 317 347 358 10 39 43 332 2 334 2 313 323 10 3 174 114 223 184 303 291 280 222 304 343 22 58 7 25 83 132 285 62 71 13 19 65 25 15 348 302 310 312 267 208 222 229 213 221 232 236 234 231 233 234 244 268 297 328 338
110 69 39 34 35 26 18 13 360 355 42 72 97 163 164 191 186 115 58 100 147 61 87 171 196 84 155 170 265 305 360 13 359 30 67 50 24 208 69 312 313 354 7 133 125 260 180 53 277 273 274 294 346 44 47 333 353 38 26 2 51 113 141 34 63 99 129 322 309 319 331 288 225 216 196 206 216 212 216 230 227 224 225 236 260 283 311 325
124 101 35 26 32 23 13 19 22 35 64 85 153 163 118 202 158 117 105 97 88 72 95 200 163 116 192 201 226 268 30 25 341 21 87 17 18 292 34 251 289 341 6 97 93 329 67 83 250 288 335 353 350 31 100 304 330 1 30 25 2 8 83 82 32 87 120 139 212 317 315 276 247 207 188 205 212 201 203 209 215 219 222 235 252 271 299 314
70 96 31 30 39 23 21 43 43 55 82 90 131 132 133 168 147 130 132 133 109 106 142 159 141 147 181 190 207 201 151 37 228 42 300 286 69 181 272 319 294 323 1 46 38 19 62 92 233 296 340 2 240 254 222 214 192 136 97 87 115 360 70 81 335 321 78 135 167 158 279 274 259 211 200 203 197 200 205 204 209 217 221 232 246 261 282 296
64 83 36 34 29 18 53 65 46 53 97 98 71 92 155 149 140 144 145 135 120 108 114 131 136 136 156 184 209 173 151 180 182 164 217 216 194 196 188 48 351 320 26 23 322 329 96 95 181 277 284 264 270 293 313 260 177 132 116 127 137 128 100 114 203 271 335 348 170 132 257 272 265 237 218 202 193 199 205 206 210 218 224 230 241 253 266 275
65 78 51 24 4 15 77 73 39 39 76 107 98 104 132 131 129 157 166 158 143 124 100 129 151 139 188 212 169 151 174 196 189 187 207 223 223 193 171 92 15 6 58 15 291 340 72 70 8 291 301 314 312 320 330 336 60 105 295 83 126 148 127 138 173 174 181 271 161 110 259 265 281 284 231 208 201 199 202 209 215 219 226 231 238 250 260 266
74 73 44 26 9 334 126 112 112 101 97 94 80 83 101 143 176 162 198 207 172 140 111 130 174 158 172 137 116 166 212 217 218 223 200 205 217 188 169 115 42 119 118 194 187 48 52 111 63 6 343 343 343 347 341 339 3 211 260 266 173 142 107 95 92 93 324 236 162 143 244 249 283 322 262 214 212 210 209 211 217 223 229 235 241 251 259 262
76 75 42 34 26 75 126 135 142 139 138 102 91 121 114 114 194 204 216 203 186 171 122 358 197 147 121 79 67 40 296 327 251 268 264 243 245 201 187 184 205 182 148 165 209 50 145 187 111 91 7 312 308 304 288 300 312 268 263 225 185 144 120 109 62 95 245 238 164 170 230 254 285 305 275 237 221 225 224 219 221 230 236 241 246 252 256 255
69 104 24 30 37 71 90 111 132 131 149 149 124 158 159 155 211 208 199 195 207 199 162 139 166 138 104 96 66 345 310 328 340 334 280 256 262 210 197 206 219 190 150 124 111 83 102 218 200 179 207 229 240 257 263 15 308 269 263 235 220 231 201 133 117 170 204 197 203 224 234 267 281 264 240 245 230 228 238 233 231 235 242 248 250 251 252 251
67 88 337 29 36 64 74 88 119 123 152 164 145 159 169 168 207 206 202 208 208 192 185 189 180 173 190 184 165 274 275 329 345 295 248 247 267 279 237 219 199 184 162 128 113 109 90 297 245 207 231 251 264 278 290 305 273 259 264 251 231 237 219 171 191 206 157 128 257 249 210 240 268 254 213 232 237 230 237 238 239 244 250 256 255 251 249 248
47 191 174 127 292 72 74 86 130 122 135 149 140 153 159 160 176 189 199 204 194 188 187 259 234 210 194 177 165 152 203 305 307 244 237 248 266 324 324 214 182 174 171 149 103 108 110 248 248 210 251 264 270 274 276 276 264 256 262 257 239 219 202 205 223 210 158 198 246 248 178 229 262 266 228 226 232 237 247 251 254 258 261 262 258 250 245 245
138 150 155 155 180 141 115 137 144 132 132 127 103 158 164 178 198 201 170 136 232 223 193 210 248 220 194 177 160 154 191 211 256 242 219 165 224 294 18 245 198 176 174 147 66 108 123 249 263 256 280 273 262 260 262 268 274 268 261 255 243 226 216 221 235 223 205 233 250 257 264 266 267 266 262 261 260 260 266 269 269 267 266 265 258 247 243 248
185 185 170 154 134 121 121 137 142 131 117 96 260 213 185 184 199 204 172 163 179 213 183 207 246 208 192 190 175 199 216 194 187 231 192 155 169 224 188 217 178 162 175 150 76 156 159 266 301 50 313 287 276 283 275 263 275 279 273 263 244 228 224 226 235 231 222 240 252 255 263 270 267 263 264 270 271 266 265 266 265 265 267 265 257 248 248 254
225 225 189 154 127 135 139 146 148 128 74 210 213 207 195 204 202 189 188 200 200 180 180 204 212 176 183 196 203 234 239 223 219 234 194 183 203 202 199 199 162 150 172 174 167 151 171 267 1 49 342 286 301 357 327 295 289 279 274 270 250 223 216 219 221 216 210 222 237 244 244 253 263 266 261 260 258 247 247 254 257 261 263 259 253 252 256 261
222 218 203 174 140 163 162 154 142 139 206 217 204 199 208 219 195 175 180 229 214 207 208 205 187 152 155 201 217 238 249 247 248 257 236 226 234 229 226 214 185 176 173 160 160 153 146 157 12 59 298 275 286 331 327 324 318 282 261 263 244 205 198 211 226 221 213 208 205 213 225 240 256 263 248 247 240 232 241 254 260 262 260 255 252 256 265 269
Height
1569 1569 1569 1569 1568 1567 1567 1567 1567 1566 1565 1565 1564 1563 1563 1562 1562 1561 1560 1560 1559 1558 1557 1556 1556 1555 1555 1553 1552 1550 1550 1548 1545 1540 1539 1547 1553 1550 1548 1546 1543 1541 1539 1538 1535 1533 1532 1531 1531 1530 1529 1529 1529 1530 1530 1531 1532 1532 1535 1538 1540 1543 1545 1545 1546 1546 1544 1542 1541 1539 1537 1536 1532 1528 1526 1524 1522 1523 1520 1517 1520 1518 1517 1517 1517 1517 1517 1518
1571 1571 1570 1570 1569 1569 1568 1568 1568 1567 1566 1566 1565 1564 1564 1563 1563 1562 1561 1561 1560 1559 1558 1557 1557 1556 1555 1553 1552 1550 1549 1550 1545 1541 1545 1552 1553 1550 1549 1546 1544 1542 1540 1538 1536 1534 1533 1533 1532 1532 1530 1530 1532 1532 1532 1533 1534 1535 1537 1539 1542 1547 1547 1545 1546 1546 1545 1543 1541 1540 1538 1537 1536 1533 1530 1528 1525 1524 1522 1520 1520 1519 1519 1521 1519 1520 1520 1520
1572 1572 1572 1571 1571 1570 1569 1569 1568 1567 1567 1566 1566 1565 1565 1564 1564 1563 1562 1562 1561 1560 1560 1559 1558 1556 1553 1552 1551 1550 1550 1549 1543 1544 1552 1554 1552 1551 1549 1547 1546 1544 1542 1540 1538 1537 1536 1535 1534 1533 1532 1532 1534 1534 1534 1536 1536 1537 1539 1542 1546 1549 1547 1546 1546 1545 1545 1543 1541 1539 1538 1537 1536 1535 1533 1532 1529 1526 1526 1526 1524 1523 1524 1524 1523 1522 1521 1522
1574 1573 1573 1572 1572 1571 1570 1569 1568 1568 1567 1567 1567 1566 1566 1565 1565 1564 1563 1563 1562 1562 1561 1560 1559 1556 1553 1550 1550 1551 1550 1548 1548 1554 1558 1555 1554 1553 1550 1549 1547 1545 1544 1542 1541 1540 1538 1537 1536 1535 1533 1535 1536 1535 1537 1540 1540 1539 1542 1547 1548 1547 1547 1546 1546 1545 1544 1543 1540 1539 1538 1536 1535 1535 1534 1533 1532 1529 1528 1529 1530 1529 1528 1526 1525 1524 1524 1525
1575 1574 1574 1573 1572 1571 1570 1569 1569 1568 1568 1567 1567 1567 1567 1566 1566 1565 1564 1564 1563 1563 1563 1561 1561 1558 1554 1550 1550 1551 1550 1554 1560 1562 1560 1557 1556 1554 1551 1550 1548 1547 1546 1544 1543 1541 1539 1538 1537 1536 1536 1538 1539 1539 1542 1543 1542 1542 1545 1548 1548 1547 1546 1546 1545 1545 1543 1542 1540 1538 1537 1537 1535 1534 1534 1534 1535 1533 1530 1529 1531 1531 1530 1529 1527 1526 1526 1527
1576 1575 1574 1574 1573 1572 1571 1570 1569 1568 1568 1568 1568 1568 1568 1567 1567 1566 1566 1566 1565 1565 1563 1562 1561 1560 1558 1554 1554 1552 1552 1563 1568 1563 1561 1559 1557 1555 1553 1552 1550 1549 1547 1545 1543 1541 1540 1539 1538 1538 1540 1542 1543 1544 1545 1544 1542 1544 1546 1546 1546 1547 1545 1544 1544 1544 1543 1541 1540 1538 1538 1537 1535 1533 1533 1533 1534 1533 1531 1530 1531 1531 1531 1530 1529 1528 1528 1528
1577 1576 1576 1575 1574 1573 1571 1570 1570 1569 1569 1569 1569 1569 1569 1569 1568 1568 1567 1567 1567 1566 1564 1563 1561 1560 1559 1557 1556 1552 1553 1566 1569 1565 1563 1561 1559 1558 1555 1553 1552 1551 1548 1545 1543 1543 1542 1541 1541 1542 1544 1545 1547 1547 1547 1546 1544 1545 1547 1545 1544 1545 1544 1543 1543 1542 1542 1541 1539 1538 1537 1536 1535 1534 1532 1530 1531 1532 1530 1530 1530 1530 1530 1530 1530 1529 1528 1528
1578 1577 1577 1576 1574 1573 1572 1571 1571 1570 1570 1570 1570 1570 1570 1570 1569 1569 1569 1568 1568 1567 1566 1564 1561 1559 1558 1558 1556 1551 1556 1567 1568 1566 1564 1562 1561 1559 1557 1555 1553 1552 1549 1547 1546 1546 1544 1544 1545 1546 1548 1549 1550 1549 1547 1546 1546 1547 1548 1546 1545 1544 1544 1543 1541 1540 1539 1539 1538 1537 1536 1535 1535 1534 1532 1529 1529 1531 1530 1529 1528 1528 1528 1528 1529 1529 1528 1528
1579 1578 1577 1576 1575 1574 1573 1573 1572 1572 1572 1572 1572 1571 1571 1571 1571 1571 1570 1570 1569 1568 1567 1564 1563 1560 1558 1559 1554 1552 1563 1570 1568 1567 1565 1563 1562 1560 1558 1556 1554 1553 1551 1550 1550 1548 1546 1547 1549 1549 1550 1551 1551 1550 1549 1548 1549 1550 1549 1547 1546 1545 1544 1544 1541 1539 1537 1537 1537 1537 1535 1534 1534 1533 1532 1529 1529 1530 1529 1528 1526 1526 1526 1526 1527 1529 1529 1529
1579 1578 1578 1577 1576 1575 1574 1574 1574 1573 1573 1573 1573 1572 1572 1572 1572 1572 1571 1571 1570 1569 1568 1565 1566 1562 1560 1558 1550 1557 1572 1572 1569 1568 1566 1565 1563 1562 1559 1557 1556 1554 1553 1553 1551 1550 1549 1550 1551 1550 1551 1551 1551 1551 1550 1550 1552 1551 1549 1547 1546 1545 1546 1545 1542 1539 1537 1537 1537 1537 1535 1534 1533 1533 1532 1530 1528 1527 1526 1526 1525 1525 1525 1525 1526 1528 1529 1530
1579 1579 1578 1578 1577 1576 1576 1575 1575 1574 1574 1574 1574 1573 1573 1573 1573 1572 1572 1571 1571 1570 1569 1568 1567 1564 1562 1556 1550 1565 1576 1571 1570 1568 1566 1566 1564 1562 1560 1558 1558 1556 1555 1554 1553 1553 1553 1553 1553 1551 1552 1552 1552 1552 1551 1552 1551 1550 1548 1547 1546 1546 1546 1545 1542 1540 1538 1538 1538 1536 1535 1534 1534 1535 1534 1532 1529 1526 1524 1524 1524 1524 1524 1525 1526 1528 1530 1530
1580 1579 1579 1579 1578 1578 1577 1576 1576 1576 1576 1575 1575 1574 1574 1574 1574 1573 1573 1572 1571 1571 1570 1569 1567 1566 1562 1554 1558 1573 1575 1571 1571 1568 1567 1566 1564 1563 1561 1560 1559 1558 1557 1556 1555 1555 1555 1555 1554 1552 1553 1553 1553 1552 1552 1553 1550 1549 1549 1548 1547 1545 1546 1546 1544 1543 1541 1539 1538 1535 1536 1537 1537 1538 1536 1532 1529 1525 1523 1521 1522 1523 1523 1524 1526 1528 1529 1529
1580 1580 1580 1580 1579 1579 1578 1578 1577 1577 1577 1576 1576 1575 1575 1575 1574 1574 1573 1573 1572 1571 1571 1570 1569 1568 1561 1558 1569 1576 1573 1572 1571 1569 1568 1566 1565 1565 1563 1562 1561 1559 1558 1558 1557 1557 1556 1556 1555 1554 1554 1553 1553 1553 1554 1554 1551 1550 1551 1551 1552 1549 1547 1549 1548 1544 1542 1541 1538 1537 1541 1542 1540 1539 1536 1533 1529 1524 1522 1520 1520 1520 1521 1523 1525 1528 1528 1528
1581 1581 1581 1580 1580 1580 1579 1579 1578 1578 1578 1578 1577 1577 1576 1576 1575 1575 1574 1573 1573 1572 1572 1570 1570 1568 1563 1566 1575 1575 1574 1574 1571 1570 1568 1567 1567 1566 1564 1563 1562 1561 1560 1559 1559 1558 1558 1557 1555 1554 1554 1554 1553 1553 1554 1554 1553 1553 1553 1555 1560 1560 1555 1552 1551 1547 1544 1543 1539 1537 1543 1546 1544 1543 1538 1534 1530 1526 1525 1523 1520 1520 1520 1522 1525 1527 1528 1528
1581 1581 1581 1581 1581 1581 1581 1580 1580 1579 1579 1578 1579 1578 1578 1577 1577 1576 1575 1574 1573 1573 1573 1571 1570 1569 1566 1571 1576 1576 1575 1572 1570 1569 1569 1568 1567 1565 1565 1564 1563 1562 1561 1560 1560 1559 1558 1558 1556 1555 1556 1556 1553 1554 1556 1557 1558 1557 1560 1565 1567 1567 1562 1555 1553 1552 1550 1548 1542 1538 1546 1551 1548 1547 1542 1537 1533 1529 1529 1528 1524 1523 1523 1524 1525 1526 1527 1528
1582 1582 1582 1582 1582 1582 1582 1582 1582 1581 1580 1580 1580 1579 1579 1579 1578 1577 1576 1575 1573 1573 1573 1572 1571 1569 1570 1575 1578 1576 1574 1572 1571 1572 1571 1569 1568 1567 1566 1565 1564 1563 1562 1562 1560 1560 1559 1558 1557 1557 1558 1556 1555 1558 1557 1560 1564 1563 1567 1573 1571 1569 1566 1559 1554 1555 1553 1550 1547 1545 1553 1558 1554 1551 1546 1541 1538 1534 1533 1533 1529 1527 1527 1528 1528 1527 1527 1527
1583 1583 1583 1583 1583 1583 1583 1583 1583 1582 1582 1581 1581 1581 1580 1580 1579 1578 1577 1576 1575 1575 1574 1574 1573 1570 1573 1579 1579 1577 1576 1575 1575 1574 1572 1571 1570 1569 1567 1566 1565 1564 1564 1562 1561 1560 1559 1558 1558 1559 1560 1559 1560 1559 1557 1565 1572 1570 1570 1573 1572 1571 1569 1564 1559 1558 1555 1553 1554 1553 1557 1563 1559 1554 1549 1545 1543 1539 1537 1538 1535 1532 1531 1530 1530 1530 1529 1528
1584 1584 1584 1584 1584 1584 1584 1585 1584 1584 1583 1582 1582 1582 1581 1581 1581 1579 1577 1577 1576 1574 1573 1574 1573 1573 1579 1583 1583 1583 1581 1579 1577 1575 1574 1573 1571 1570 1569 1567 1565 1565 1564 1562 1561 1560 1559 1559 1559 1560 1561 1563 1563 1562 1566 1575 1577 1575 1575 1574 1573 1572 1571 1568 1565 1563 1559 1557 1559 1558 1560 1563 1560 1556 1553 1551 1548 1543 1543 1544 1541 1538 1535 1533 1532 1531 1531 1530
1585 1585 1584 1584 1585 1585 1585 1585 1585 1585 1584 1583 1583 1582 1582 1582 1581 1580 1579 1577 1575 1577 1582 1583 1581 1584 1590 1589 1587 1586 1584 1581 1579 1577 1575 1574 1573 1572 1571 1569 1568 1566 1564 1564 1563 1562 1561 1559 1559 1562 1566 1569 1570 1571 1575 1577 1576 1575 1577 1576 1576 1574 1571 1569 1567 1565 1562 1561 1562 1563 1564 1564 1561 1559 1557 1556 1552 1548 1548 1548 1545 1543 1540 1538 1536 1534 1533 1532
1586 1585 1585 1585 1585 1585 1585 1585 1585 1585 1584 1583 1583 1583 1583 1583 1582 1583 1582 1578 1581 1588 1593 1593 1591 1592 1593 1591 1588 1586 1584 1582 1580 1578 1576 1575 1574 1573 1571 1571 1569 1566 1566 1568 1567 1566 1562 1561 1569 1575 1577 1577 1575 1575 1576 1575 1575 1575 1575 1575 1575 1575 1572 1568 1568 1567 1561 1563 1568 1566 1565 1566 1565 1564 1562 1560 1555 1552 1553 1552 1550 1548 1544 1542 1541 1540 1538 1537
1587 1587 1586 1586 1586 1585 1585 1585 1585 1584 1584 1584 1584 1584 1584 1583 1583 1586 1586 1585 1590 1594 1593 1594 1593 1593 1592 1591 1588 1586 1585 1582 1580 1579 1578 1576 1574 1573 1573 1573 1570 1569 1571 1571 1570 1567 1561 1566 1580 1582 1580 1579 1577 1576 1576 1575 1574 1574 1575 1575 1574 1574 1572 1567 1568 1569 1562 1563 1571 1566 1563 1569 1568 1566 1565 1561 1557 1558 1559 1558 1556 1554 1550 1548 1546 1545 1544 1544
1588 1588 1588 1587 1587 1586 1585 1585 1585 1584 1584 1584 1584 1585 1585 1584 1585 1587 1587 1590 1593 1593 1593 1594 1593 1593 1592 1591 1589 1588 1585 1581 1579 1579 1578 1577 1575 1575 1576 1576 1575 1576 1576 1572 1570 1568 1567 1576 1584 1581 1579 1578 1576 1577 1576 1575 1574 1574 1574 1574 1573 1572 1570 1567 1568 1569 1564 1565 1572 1567 1566 1573 1571 1568 1567 1563 1563 1565 1564 1562 1561 1559 1554 1551 1551 1550 1548 1547
1589 1589 1589 1588 1588 1587 1586 1586 1585 1585 1585 1585 1585 1585 1585 1586 1586 1587 1586 1589 1593 1594 1594 1594 1593 1593 1592 1591 1591 1589 1586 1585 1584 1582 1580 1578 1577 1577 1578 1578 1579 1580 1579 1576 1574 1573 1577 1583 1583 1581 1580 1577 1576 1577 1576 1575 1574 1574 1574 1572 1572 1570 1569 1570 1568 1568 1565 1565 1571 1569 1569 1574 1573 1571 1570 1568 1569 1569 1568 1566 1564 1562 1558 1555 1555 1553 1550 1548
1590 1590 1590 1589 1589 1588 1588 1587 1586 1586 1586 1586 1586 1586 1587 1587 1587 1587 1587 1588 1592 1594 1594 1594 1594 1593 1593 1593 1592 1590 1589 1590 1589 1586 1583 1581 1579 1579 1580 1580 1581 1581 1582 1582 1579 1580 1585 1585 1583 1581 1580 1578 1578 1577 1576 1577 1575 1574 1573 1571 1570 1569 1570 1571 1569 1569 1568 1566 1569 1568 1570 1575 1576 1575 1573 1572 1572 1571 1570 1569 1567 1565 1561 1559 1557 1555 1553 1551
1591 1590 1590 1590 1590 1589 1589 1588 1588 1587 1587 1587 1588 1587 1588 1588 1588 1588 1587 1589 1593 1595 1595 1595 1595 1595 1595 1594 1592 1592 1591 1591 1591 1590 1586 1584 1582 1581 1582 1582 1582 1584 1585 1585 1583 1584 1586 1585 1583 1582 1580 1580 1578 1577 1577 1578 1578 1574 1570 1569 1570 1569 1570 1570 1569 1570 1570 1571 1571 1569 1573 1581 1581 1578 1578 1575 1574 1573 1573 1572 1570 1567 1562 1560 1558 1557 1556 1555
1591 1591 1591 1590 1590 1590 1590 1589 1589 1588 1588 1588 1588 1588 1588 1588 1588 1588 1589 1591 1594 1597 1596 1595 1596 1597 1596 1595 1592 1590 1591 1591 1592 1592 1587 1585 1584 1583 1584 1584 1585 1585 1586 1586 1586 1586 1586 1585 1585 1584 1583 1580 1578 1578 1577 1578 1577 1572 1568 1569 1570 1570 1571 1571 1569 1569 1573 1577 1574 1569 1573 1582 1582 1580 1579 1577 1576 1575 1574 1572 1571 1568 1564 1562 1561 1560 1559 1558
1592 1592 1592 1591 1591 1590 1590 1590 1589 1589 1588 1588 1589 1588 1588 1588 1588 1589 1588 1590 1595 1599 1599 1597 1598 1599 1598 1598 1594 1591 1595 1595 1592 1592 1589 1587 1586 1585 1586 1588 1587 1587 1588 1587 1586 1588 1588 1586 1585 1585 1583 1581 1581 1579 1577 1578 1576 1568 1566 1569 1569 1570 1572 1571 1569 1570 1576 1578 1578 1573 1572 1582 1586 1582 1580 1578 1577 1576 1574 1573 1571 1568 1567 1565 1563 1563 1562 1561
1593 1593 1592 1592 1592 1591 1592 1591 1590 1590 1589 1589 1589 1588 1589 1588 1589 1590 1587 1590 1599 1601 1601 1601 1600 1600 1600 1600 1597 1595 1600 1599 1594 1594 1592 1588 1587 1585 1587 1590 1590 1590 1589 1586 1587 1590 1590 1588 1586 1586 1585 1583 1582 1581 1578 1578 1575 1569 1568 1570 1569 1569 1571 1572 1571 1574 1575 1575 1579 1579 1576 1584 1590 1584 1580 1579 1578 1576 1575 1573 1572 1570 1569 1568 1567 1565 1565 1564
1594 1594 1593 1593 1593 1593 1593 1592 1591 1591 1590 1590 1589 1589 1590 1588 1590 1591 1586 1591 1602 1603 1602 1602 1601 1602 1601 1600 1599 1599 1600 1600 1597 1596 1593 1590 1588 1587 1589 1591 1591 1591 1590 1588 1590 1592 1589 1588 1587 1586 1587 1587 1583 1580 1579 1577 1576 1571 1570 1571 1570 1570 1571 1572 1571 1572 1573 1575 1582 1582 1577 1584 1590 1585 1582 1582 1581 1578 1576 1575 1574 1572 1572 1570 1569 1567 1566 1565
1595 1594 1594 1594 1593 1593 1593 1593 1592 1592 1591 1590 1590 1590 1590 1590 1592 1588 1585 1594 1604 1604 1604 1604 1604 1606 1604 1601 1600 1600 1601 1600 1600 1597 1593 1591 1589 1587 1589 1589 1590 1592 1592 1591 1590 1592 1591 1587 1588 1588 1588 1588 1584 1580 1578 1577 1576 1571 1570 1571 1569 1571 1574 1573 1574 1572 1570 1576 1583 1581 1576 1579 1584 1584 1583 1583 1582 1579 1577 1576 1575 1574 1573 1571 1570 1569 1567 1565
1596 1595 1594 1594 1593 1593 1593 1593 1592 1592 1591 1590 1591 1591 1591 1592 1592 1587 1591 1603 1606 1605 1607 1607 1608 1609 1607 1606 1605 1603 1602 1600 1599 1596 1593 1593 1591 1589 1590 1594 1595 1590 1591 1595 1591 1591 1591 1587 1588 1589 1588 1588 1583 1579 1577 1576 1575 1571 1571 1570 1566 1570 1573 1569 1571 1572 1572 1579 1580 1578 1576 1575 1577 1580 1580 1580 1579 1578 1576 1576 1576 1574 1573 1572 1570 1569 1568 1566
1596 1595 1595 1594 1593 1593 1592 1592 1592 1591 1591 1591 1591 1592 1592 1591 1591 1596 1603 1608 1607 1609 1612 1612 1612 1611 1610 1611 1609 1607 1606 1603 1601 1601 1602 1604 1604 1604 1606 1610 1610 1595 1591 1602 1600 1593 1590 1590 1592 1588 1587 1588 1584 1582 1579 1575 1576 1574 1575 1572 1566 1572 1574 1571 1577 1578 1578 1581 1577 1577 1577 1576 1579 1578 1576 1579 1577 1577 1577 1576 1576 1575 1573 1572 1571 1570 1568 1567
1597 1596 1595 1594 1594 1593 1592 1592 1592 1590 1590 1590 1590 1593 1593 1588 1596 1610 1615 1611 1611 1616 1618 1616 1616 1616 1613 1612 1612 1612 1610 1608 1608 1607 1609 1611 1611 1614 1614 1615 1617 1606 1600 1608 1612 1603 1590 1588 1593 1589 1589 1590 1588 1591 1588 1582 1581 1580 1582 1579 1574 1578 1576 1580 1595 1593 1584 1580 1577 1580 1579 1577 1582 1578 1574 1577 1577 1576 1576 1575 1575 1574 1573 1572 1571 1570 1569 1567
1597 1596 1596 1595 1594 1593 1593 1592 1591 1590 1590 1589 1589 1591 1590 1592 1606 1618 1617 1617 1620 1620 1619 1619 1618 1617 1615 1615 1616 1616 1613 1612 1613 1611 1610 1610 1611 1615 1616 1614 1615 1613 1611 1612 1614 1613 1600 1590 1591 1592 1592 1592 1590 1594 1593 1590 1588 1585 1587 1586 1585 1591 1585 1585 1598 1595 1587 1585 1579 1578 1579 1578 1581 1576 1573 1575 1575 1575 1575 1574 1574 1573 1573 1573 1571 1570 1569 1567
1597 1596 1596 1595 1594 1594 1593 1592 1591 1590 1589 1589 1589 1589 1591 1600 1614 1619 1617 1621 1623 1621 1621 1622 1620 1617 1617 1619 1619 1618 1616 1614 1614 1614 1613 1613 1615 1617 1618 1617 1615 1615 1615 1610 1610 1617 1611 1598 1594 1593 1593 1593 1591 1591 1591 1588 1586 1586 1588 1587 1590 1598 1595 1593 1598 1596 1594 1590 1580 1579 1581 1581 1580 1575 1574 1575 1574 1575 1574 1572 1574 1572 1572 1572 1570 1569 1568 1566
1596 1596 1596 1595 1595 1594 1593 1592 1591 1590 1589 1588 1588 1593 1601 1609 1615 1618 1619 1620 1621 1621 1621 1619 1619 1617 1615 1618 1620 1619 1618 1616 1616 1617 1617 1618 1620 1619 1619 1618 1617 1617 1615 1613 1614 1616 1609 1597 1593 1593 1591 1592 1592 1591 1590 1587 1584 1586 1588 1591 1594 1598 1596 1593 1594 1599 1600 1589 1580 1582 1581 1579 1578 1573 1572 1575 1574 1574 1574 1572 1573 1572 1571 1571 1569 1568 1567 1566
1596 1596 1595 1595 1594 1594 1594 1593 1592 1591 1590 1588 1590 1601 1615 1618 1617 1619 1620 1618 1619 1622 1619 1615 1618 1621 1619 1619 1620 1619 1619 1616 1616 1617 1618 1621 1621 1619 1621 1619 1618 1618 1616 1616 1617 1618 1614 1601 1595 1596 1592 1590 1592 1590 1590 1590 1589 1589 1589 1592 1595 1594 1595 1594 1588 1590 1593 1584 1579 1584 1582 1578 1577 1571 1570 1574 1573 1572 1573 1572 1572 1571 1571 1570 1569 1567 1566 1565
1596 1596 1595 1594 1594 1594 1594 1593 1593 1592 1590 1592 1601 1613 1621 1621 1619 1620 1620 1619 1619 1620 1618 1616 1620 1625 1625 1623 1621 1623 1622 1616 1617 1620 1619 1621 1621 1620 1623 1620 1618 1619 1617 1616 1616 1618 1619 1604 1592 1596 1596 1592 1592 1589 1589 1591 1591 1592 1592 1593 1593 1590 1592 1595 1591 1589 1591 1590 1586 1585 1586 1582 1575 1570 1569 1570 1570 1570 1571 1571 1570 1570 1569 1568 1568 1566 1565 1565
1597 1596 1595 1595 1594 1594 1594 1593 1593 1592 1590 1596 1608 1615 1619 1621 1621 1620 1621 1621 1620 1619 1619 1620 1622 1625 1627 1625 1624 1626 1625 1621 1623 1624 1620 1621 1622 1621 1623 1622 1620 1619 1616 1617 1616 1617 1620 1608 1591 1593 1597 1594 1591 1592 1595 1597 1594 1592 1592 1593 1594 1595 1597 1599 1601 1600 1598 1598 1595 1588 1582 1573 1567 1567 1565 1563 1566 1567 1568 1569 1569 1568 1568 1567 1566 1565 1565 1564
1597 1596 1596 1595 1594 1594 1594 1593 1592 1593 1596 1604 1613 1616 1619 1621 1620 1620 1620 1620 1620 1620 1620 1622 1623 1624 1625 1627 1627 1626 1627 1626 1626 1625 1622 1623 1623 1622 1623 1623 1621 1620 1617 1618 1618 1617 1621 1616 1600 1593 1594 1593 1593 1597 1600 1601 1599 1595 1594 1598 1597 1599 1602 1601 1605 1611 1605 1601 1603 1599 1581 1562 1559 1564 1561 1560 1564 1564 1565 1566 1566 1566 1566 1566 1565 1564 1564 1563
1596 1597 1597 1595 1595 1595 1593 1593 1596 1600 1607 1614 1618 1619 1621 1620 1618 1620 1620 1619 1620 1620 1621 1622 1623 1623 1624 1624 1625 1626 1626 1626 1626 1625 1624 1624 1623 1622 1623 1622 1621 1621 1619 1618 1619 1618 1619 1620 1613 1604 1597 1593 1596 1602 1602 1601 1602 1598 1598 1603 1602 1601 1602 1597 1599 1611 1613 1606 1606 1607 1590 1565 1558 1562 1559 1559 1561 1561 1563 1564 1563 1565 1564 1564 1564 1563 1563 1562
1596 1597 1597 1596 1596 1595 1593 1597 1603 1607 1611 1615 1617 1619 1620 1619 1619 1620 1619 1619 1620 1619 1620 1622 1622 1624 1625 1624 1624 1626 1626 1624 1624 1624 1622 1622 1622 1621 1621 1621 1621 1621 1620 1619 1621 1620 1619 1622 1621 1612 1603 1600 1600 1602 1602 1601 1601 1601 1600 1602 1603 1605 1604 1599 1597 1605 1613 1612 1611 1617 1603 1571 1556 1559 1559 1558 1558 1559 1561 1561 1561 1562 1562 1562 1562 1561 1562 1561
1597 1597 1597 1596 1596 1595 1594 1599 1606 1611 1613 1616 1618 1618 1619 1619 1619 1619 1619 1619 1619 1619 1620 1621 1621 1622 1623 1624 1625 1626 1625 1621 1621 1621 1620 1620 1620 1619 1619 1620 1619 1620 1620 1620 1620 1620 1620 1622 1618 1608 1602 1604 1604 1602 1603 1603 1602 1601 1601 1602 1602 1603 1602 1602 1603 1606 1611 1610 1608 1614 1601 1567 1554 1560 1559 1557 1558 1558 1559 1559 1560 1560 1560 1560 1561 1560 1560 1560
1597 1597 1597 1596 1596 1595 1594 1597 1603 1611 1615 1616 1617 1618 1619 1619 1620 1620 1620 1620 1619 1620 1620 1620 1621 1621 1622 1623 1624 1625 1625 1619 1618 1620 1620 1619 1618 1617 1617 1618 1619 1619 1619 1619 1620 1619 1619 1621 1618 1607 1598 1596 1597 1598 1599 1601 1603 1602 1602 1603 1601 1602 1604 1605 1608 1610 1609 1604 1603 1603 1586 1560 1556 1561 1558 1557 1559 1557 1558 1558 1557 1558 1558 1558 1558 1558 1558 1558
1598 1597 1597 1597 1596 1595 1596 1597 1600 1607 1615 1616 1616 1618 1618 1618 1619 1619 1620 1620 1620 1620 1620 1621 1621 1621 1622 1624 1624 1626 1626 1621 1618 1620 1620 1619 1618 1616 1617 1617 1618 1618 1618 1618 1620 1619 1619 1622 1620 1611 1600 1592 1590 1592 1594 1599 1603 1602 1602 1603 1600 1602 1604 1603 1607 1610 1604 1602 1605 1596 1574 1557 1557 1560 1557 1558 1559 1557 1557 1557 1556 1556 1556 1556 1556 1556 1556 1556
1598 1597 1597 1597 1597 1596 1598 1599 1599 1603 1610 1612 1612 1615 1617 1617 1618 1618 1619 1619 1619 1620 1621 1621 1621 1622 1623 1624 1624 1625 1627 1626 1624 1623 1621 1619 1617 1616 1617 1617 1617 1618 1618 1618 1619 1619 1621 1623 1620 1615 1607 1598 1593 1595 1599 1604 1605 1602 1601 1601 1600 1601 1601 1603 1608 1606 1598 1600 1599 1583 1568 1561 1556 1555 1556 1556 1556 1556 1555 1554 1555 1554 1554 1554 1554 1553 1553 1553
1598 1598 1599 1599 1598 1598 1600 1602 1601 1601 1604 1605 1605 1610 1614 1616 1617 1618 1618 1619 1619 1619 1620 1620 1621 1621 1621 1622 1623 1623 1627 1629 1627 1624 1621 1619 1618 1617 1617 1617 1618 1618 1618 1618 1618 1619 1622 1620 1618 1618 1613 1605 1603 1604 1604 1606 1606 1603 1601 1600 1599 1599 1601 1603 1602 1595 1593 1594 1582 1568 1571 1569 1554 1550 1554 1554 1553 1554 1553 1552 1552 1552 1552 1552 1551 1550 1550 1550
1598 1599 1600 1600 1600 1601 1602 1603 1603 1603 1603 1604 1605 1608 1611 1613 1615 1615 1615 1617 1618 1618 1619 1619 1619 1618 1618 1620 1619 1620 1625 1626 1623 1621 1619 1618 1619 1618 1617 1618 1619 1618 1618 1619 1618 1619 1622 1618 1616 1617 1614 1609 1609 1607 1604 1605 1604 1601 1599 1597 1597 1598 1598 1597 1592 1589 1590 1584 1568 1562 1571 1567 1552 1548 1551 1550 1550 1550 1549 1550 1550 1549 1549 1548 1547 1548 1547 1546
1598 1598 1600 1601 1601 1603 1603 1603 1604 1604 1605 1606 1608 1609 1609 1610 1610 1610 1613 1616 1617 1618 1618 1617 1615 1615 1617 1618 1616 1617 1619 1614 1611 1615 1618 1618 1619 1618 1618 1618 1619 1619 1619 1619 1619 1620 1620 1617 1617 1617 1612 1607 1606 1605 1604 1604 1602 1599 1595 1592 1592 1593 1592 1589 1586 1585 1585 1578 1566 1564 1568 1561 1548 1544 1545 1544 1547 1548 1546 1546 1546 1545 1544 1544 1544 1544 1543 1543
1598 1598 1599 1600 1601 1603 1604 1604 1605 1605 1606 1607 1607 1607 1608 1607 1606 1607 1610 1610 1611 1614 1616 1613 1612 1612 1614 1616 1616 1614 1612 1608 1606 1610 1614 1616 1617 1617 1618 1616 1616 1619 1620 1619 1621 1621 1618 1616 1617 1618 1611 1603 1601 1602 1602 1603 1602 1598 1590 1584 1583 1586 1587 1586 1583 1581 1581 1577 1567 1567 1571 1561 1542 1538 1541 1542 1542 1544 1543 1541 1541 1540 1540 1540 1539 1539 1539 1539
1597 1597 1598 1599 1601 1603 1604 1604 1605 1606 1606 1607 1605 1604 1605 1604 1603 1604 1605 1604 1604 1607 1610 1608 1608 1610 1613 1615 1615 1610 1608 1608 1608 1608 1610 1612 1612 1614 1614 1613 1614 1618 1619 1620 1620 1620 1620 1618 1617 1619 1612 1599 1599 1604 1601 1600 1601 1593 1580 1569 1568 1575 1577 1574 1572 1570 1570 1569 1566 1569 1570 1554 1535 1534 1540 1539 1538 1540 1539 1537 1537 1536 1536 1537 1536 1535 1535 1535
1597 1597 1598 1598 1600 1603 1603 1604 1605 1605 1603 1602 1602 1602 1601 1601 1602 1602 1601 1602 1602 1602 1604 1604 1605 1609 1611 1612 1611 1607 1605 1607 1608 1608 1609 1610 1610 1611 1612 1612 1613 1614 1616 1619 1619 1619 1620 1617 1617 1621 1612 1598 1600 1605 1602 1600 1592 1573 1558 1552 1553 1560 1564 1564 1563 1561 1559 1559 1560 1560 1551 1538 1532 1535 1537 1535 1535 1536 1534 1533 1533 1533 1533 1533 1532 1532 1532 1531